Regional Weather Roundup
Issued by NWS Albany, NY

Home | Current Version | Previous Version | Text Only | Print | Product List | Glossary On
Versions: 1 2 3 4 5 6 7 8 9 10 11 12 13 14 15 16 17 18 19 20 21 22 23 24 25 26 27 28 29 30 31 32 33 34 35 36 37 38 39 40 41 42 43 44 45 46 47 48 49 50
000
ASUS41 KALY 040510
RWRALY

NEW YORK STATE HOURLY WEATHER ROUNDUP
NATIONAL WEATHER SERVICE ALBANY NY
100 AM EDT SAT JUL 04 2015

NOTE: "FAIR" INDICATES FEW OR NO CLOUDS BELOW 12,000 FEET WITH NO
SIGNIFICANT WEATHER AND/OR NO OBSTRUCTIONS TO VISIBILITY.

NYZ032-033-038>043-046>054-057>066-NYZ062>081-040600-
EAST


CITY           SKY/WX    TMP DP  RH WIND       PRES   REMARKS
ALBANY         CLOUDY    61  51  70 CALM      29.97F
GLENS FALLS    CLOUDY    58  54  86 CALM      29.98S
POUGHKEEPSIE   PTCLDY    62  56  80 E3        29.97R
NEWBURGH       MOCLDY    68  59  73 VRB5      29.99S
MONTGOMERY     MOCLDY    60  57  89 MISG      29.98R
WHITE PLAINS   MOCLDY    65  60  84 SE3       29.99S
ISLIP          MOCLDY    68  59  73 SE5       29.98S
NEW YORK CITY  MOCLDY    71  59  65 S8        29.98R
CENTRAL PARK   MOCLDY    71  58  63 CALM      30.01R
$$

NYZ005>009-017-018-044>046-055-056-040600-
CENTRAL


CITY           SKY/WX    TMP DP  RH WIND       PRES   REMARKS
FULTON         MOCLDY    61  52  72 CALM      29.93S
SYRACUSE       MOCLDY    63  55  75 E5        29.93F
ROME           PTCLDY    57  50  77 CALM      29.97S
ELMIRA         MOCLDY    62  59  90 CALM      29.94S
BINGHAMTON     MOCLDY    62  55  77 S3        29.98R
MONTICELLO     CLOUDY    61  55  82 NE3       30.01S
$$

NYZ026>034-041>043-040600-
NORTH


CITY           SKY/WX    TMP DP  RH WIND       PRES   REMARKS
WATERTOWN      MOCLDY    53  50  89 E3        29.95S
FORT DRUM      NOT AVBL
MASSENA        MOCLDY    53  50  89 CALM      29.95F
SARANAC LAKE   MOCLDY    46  45  96 CALM      29.98F
PLATTSBURGH    MOCLDY    56  54  93 CALM      29.96S
$$

NYZ001>004-010>016-019>021-040600-
WEST


CITY           SKY/WX    TMP DP  RH WIND       PRES   REMARKS
NIAGARA FALLS  CLOUDY    59  48  67 NE6       29.90F
BUFFALO        CLOUDY    61  50  67 NE6       29.91F
DUNKIRK        CLOUDY    60  57  89 CALM      29.91F
JAMESTOWN      CLOUDY    61  52  72 CALM      29.94F
WELLSVILLE     CLOUDY    64  58  80 S6        29.97F
ROCHESTER      CLOUDY    64  45  49 E5        29.92F
PENN YAN       CLOUDY    62  57  83 CALM      29.94S
$$

             KEY
       WCI = WIND CHILL INDEX
       VSB = VISIBILITY
       HX  = HEAT INDEX
$$


USA.gov is the U.S. government's official web portal to all federal, state and local government web resources and services.